Location: Arrodets-la-Barthe
(43.0306°N, 0.2829°E)
Time: 16:24:46
(UTC+00:00)

BlueWalker 3 - Visible Passes

Search period start: 04 December 2022 00:00
Search period end: 14 December 2022 00:00
Orbit: 501 x 519 km, 53.2° (Epoch: 04 December)

Date Brightness Start Highest point End Pass type
(mag) Time Alt. Az. Time Alt. Az. Time Alt. Az.
04 Dec 3.8 17:00:49 10° NW 17:03:36 18° N 17:06:22 10° NE visible
04 Dec 4.0 18:39:53 10° NW 18:41:33 20° NNW 18:41:33 20° NNW visible
05 Dec 3.4 18:21:30 10° NW 18:24:00 25° N 18:24:00 25° N visible
06 Dec 3.0 18:03:05 10° NW 18:06:31 28° NNE 18:06:31 28° NNE visible
07 Dec 3.0 17:44:40 10° NW 17:48:08 29° NNE 17:49:07 26° NE visible
07 Dec 4.8 19:23:11 10° WNW 19:23:58 15° WNW 19:23:58 15° WNW visible
08 Dec 2.9 17:26:15 10° NW 17:29:46 30° NNE 17:31:51 19° ENE visible
08 Dec 4.0 19:04:48 10° WNW 19:06:42 27° WNW 19:06:42 27° WNW visible
09 Dec 2.8 17:07:50 10° NW 17:11:22 32° NNE 17:14:45 11° E visible
09 Dec 2.9 18:46:24 10° WNW 18:49:38 48° WSW 18:49:38 48° WSW visible
10 Dec 2.7 18:28:00 10° WNW 18:31:47 50° SW 18:32:48 38° S visible
11 Dec 2.9 18:09:35 10° WNW 18:13:20 46° SW 18:16:20 15° SSE visible
12 Dec 3.1 17:51:11 10° WNW 17:54:54 43° SW 17:58:35 10° SSE visible
13 Dec 3.4 17:32:47 10° WNW 17:36:28 40° SW 17:40:06 10° SSE visible
